Flag for China Weather past 2 weeks in Shanghai, Shanghai Municipality, China

Now
39 °F

Light rain. Clear.


Feels Like: 37 °F
Forecast: 40 / 47 °F
Wind: 3 mph from North

Location: Shanghai Hongqiao Airport

Current Time: Feb 1, 2015 at 11:27:12 PM

Latest Report: Feb 1, 2015 at 11:00 PM


Visibility: N/A

Pressure: 30.48 "Hg

Humidity: 93%

Dew point: 37 °F

Location of ShanghaiLocation

Historic Weather in Shanghai — Graph

°F

Shanghai temperature yesterday

Maximum temperature yesterday: 45 °F (at 12:30 PM)
Minimum temperature yesterday: 34 °F (at 4:30 AM)
Average temperature yesterday: 38 °F

Past Weeks' High & Low Weather Summary

 TemperatureHumidityPressure
High61 °F (Jan 24, 1:00 PM)100% (Jan 28, 12:30 AM)30.63 "Hg (Jan 28, 12:30 AM)
Low32 °F (Jan 23, 6:30 AM)24% (Jan 19, 2:30 PM)30.07 "Hg (Jan 21, 2:30 PM)
Average44 °F72%30.31 "Hg
* Reported Jan 17 10:00 PM — Feb 1 10:30 PM, Shanghai, Weather by CustomWeather, © 2014

Note: Actual official high and low records may vary slightly from our data, if they occured in-between our weather recording intervals... More about our weather records

Advertising

Shanghai weather history for previous 24 hours

 ConditionsComfort  
Time TempWeatherWind HumidityBarometerVisibility
10:30 PM
Feb 1
39 °FLight rain. Clear.3 mph93%30.51 "HgN/A
10:00 PM39 °FClear.3 mph93%30.51 "Hg10 mi
9:30 PM39 °FPassing clouds.3 mph93%30.51 "HgN/A
9:00 PM39 °FLight rain. Passing clouds.3 mph93%30.51 "HgN/A
8:30 PM39 °FLight rain. Passing clouds.8 mph93%30.51 "HgN/A
8:00 PM39 °FLight rain. Passing clouds.6 mph93%30.51 "HgN/A
7:30 PM39 °FLight rain. Passing clouds.6 mph87%30.51 "HgN/A
7:00 PM41 °FPassing clouds.3 mph76%30.51 "HgN/A
6:30 PM41 °FPassing clouds.3 mph76%30.48 "HgN/A
6:00 PM41 °FPassing clouds.3 mph76%30.48 "HgN/A
5:30 PM41 °FPassing clouds.1 mph70%30.48 "HgN/A
5:00 PM41 °FPartly sunny.3 mph70%30.48 "HgN/A
4:30 PM41 °FPartly sunny.1 mph70%30.48 "HgN/A
4:00 PM41 °FLight rain. Partly sunny.3 mph70%30.45 "HgN/A
3:30 PM43 °FPartly sunny.3 mph66%30.48 "HgN/A
3:00 PM43 °FLight rain. Partly sunny.3 mph66%30.48 "HgN/A
2:30 PM43 °FLight rain. Partly sunny.3 mph61%30.48 "HgN/A
2:00 PM43 °FPartly sunny.1 mph61%30.48 "HgN/A
1:30 PM43 °FPartly sunny.3 mph61%30.48 "HgN/A
1:00 PM43 °FPartly sunny.3 mph61%30.51 "HgN/A
12:30 PM43 °FPartly sunny.3 mph61%30.51 "HgN/A
12:00 PM43 °FPartly sunny.3 mph66%30.54 "HgN/A
11:30 AM43 °FScattered clouds.3 mph61%30.54 "HgN/A
10:30 AM41 °FScattered clouds.6 mph66%30.57 "HgN/A
10:00 AM41 °FPartly sunny.6 mph66%30.57 "HgN/A
9:30 AM39 °FScattered clouds.6 mph70%30.57 "HgN/A
9:00 AM39 °FSunny.8 mph70%30.57 "Hg10 mi
8:30 AM39 °FSunny.6 mph65%30.57 "Hg10 mi
8:00 AM37 °FSunny.6 mph70%30.57 "Hg10 mi
7:30 AM37 °FSunny.6 mph70%30.57 "Hg10 mi
7:00 AM37 °FSunny.6 mph70%30.54 "Hg10 mi
6:30 AM36 °FClear.8 mph75%30.54 "Hg10 mi
6:00 AM36 °FClear.8 mph70%30.54 "Hg10 mi
5:30 AM37 °FClear.6 mph65%30.54 "Hg10 mi
4:30 AM36 °FClear.8 mph70%30.54 "Hg10 mi
4:00 AM36 °FClear.8 mph70%30.57 "Hg10 mi
3:30 AM36 °FClear.6 mph70%30.57 "Hg10 mi
3:00 AM36 °FClear.8 mph70%30.57 "Hg10 mi
2:30 AM37 °FClear.8 mph65%30.57 "Hg10 mi
2:00 AM37 °FClear.6 mph65%30.57 "Hg10 mi
1:30 AM36 °FClear.6 mph70%30.57 "Hg10 mi
1:00 AM36 °FClear.8 mph70%30.57 "Hg10 mi
12:30 AM37 °FClear.8 mph65%30.57 "Hg10 mi
12:00 AM36 °FClear.8 mph70%30.57 "Hg10 mi
11:30 PM
Jan 31
37 °FClear.8 mph65%30.60 "Hg10 mi
11:00 PM37 °FClear.8 mph60%30.60 "Hg10 mi
Weather by CustomWeather, © 2014

See weather overviewHow to use our weather pages